Hourly Weather Luanda

Today, 12 July, Sunday

Time Temperature Precipitation Wind Pressure Humidity
00:00 +20°C° 0 mm 3 mps 755 mmHg 93%
01:00 +20°C° 0 mm 3 mps 755 mmHg 93%
02:00 +19°C° 0 mm 2 mps 755 mmHg 94%
03:00 +19°C° 0 mm 2 mps 755 mmHg 95%
04:00 +20°C° 0 mm 1 mps 755 mmHg 96%
05:00 +20°C° 0 mm 1 mps 755 mmHg 93%
06:00 +21°C° 0 mm 1 mps 755 mmHg 91%
07:00 +21°C° 0 mm 1 mps 756 mmHg 89%
08:00 +23°C° 0 mm 1 mps 756 mmHg 80%
09:00 +25°C° 0 mm 1 mps 756 mmHg 71%
10:00 +26°C° 0 mm 1 mps 757 mmHg 63%
11:00 +27°C° 0 mm 2 mps 756 mmHg 59%
12:00 +28°C° 0 mm 3 mps 755 mmHg 54%
13:00 +29°C° 0 mm 3 mps 755 mmHg 52%
14:00 +29°C° 0 mm 4 mps 754 mmHg 55%
15:00 +28°C° 0 mm 5 mps 754 mmHg 58%
16:00 +27°C° 0 mm 5 mps 753 mmHg 61%
17:00 +26°C° 0 mm 5 mps 754 mmHg 68%
18:00 +23°C° 0 mm 5 mps 754 mmHg 75%
19:00 +22°C° 0 mm 5 mps 755 mmHg 82%
20:00 +21°C° 0 mm 4 mps 755 mmHg 85%
21:00 +21°C° 0 mm 4 mps 756 mmHg 87%
22:00 +20°C° 0 mm 3 mps 756 mmHg 90%
23:00 +21°C° 0 mm 3 mps 756 mmHg 88%

Tomorrow, 13 July, Monday

Time Temperature Precipitation Wind Pressure Humidity
00:00 +21°C° 0 mm 2 mps 756 mmHg 86%
01:00 +21°C° 0 mm 2 mps 756 mmHg 85%
02:00 +21°C° 0 mm 2 mps 755 mmHg 83%
03:00 +21°C° 0 mm 2 mps 755 mmHg 82%
04:00 +23°C° 0 mm 1 mps 754 mmHg 80%
05:00 +23°C° 0 mm 1 mps 754 mmHg 79%
06:00 +23°C° 0 mm 1 mps 755 mmHg 78%
07:00 +23°C° 0 mm 1 mps 755 mmHg 77%
08:00 +24°C° 0 mm 1 mps 755 mmHg 72%
09:00 +25°C° 0 mm 1 mps 755 mmHg 67%
10:00 +26°C° 0 mm 1 mps 755 mmHg 62%
11:00 +28°C° 0 mm 2 mps 755 mmHg 58%
12:00 +29°C° 0 mm 3 mps 754 mmHg 53%
13:00 +30°C° 0 mm 4 mps 753 mmHg 49%
14:00 +29°C° 0 mm 4 mps 753 mmHg 53%
15:00 +28°C° 0 mm 5 mps 752 mmHg 57%
16:00 +27°C° 0 mm 6 mps 751 mmHg 61%
17:00 +26°C° 0 mm 5 mps 752 mmHg 68%
18:00 +23°C° 0 mm 5 mps 752 mmHg 75%
19:00 +22°C° 0 mm 5 mps 753 mmHg 83%
20:00 +22°C° 0 mm 4 mps 753 mmHg 83%
21:00 +22°C° 0 mm 4 mps 754 mmHg 82%
22:00 +22°C° 0 mm 3 mps 755 mmHg 82%
23:00 +23°C° 0 mm 2 mps 755 mmHg 81%

Day after tomorrow, 14 July, Tuesday

Time Temperature Precipitation Wind Pressure Humidity
00:00 +23°C° 0 mm 2 mps 755 mmHg 79%
01:00 +24°C° 0 mm 1 mps 755 mmHg 77%
02:00 +24°C° 0 mm 1 mps 754 mmHg 77%
03:00 +24°C° 0 mm 2 mps 754 mmHg 76%
04:00 +24°C° 0 mm 2 mps 753 mmHg 76%
05:00 +24°C° 0 mm 2 mps 754 mmHg 76%
06:00 +24°C° 0 mm 1 mps 754 mmHg 75%
07:00 +24°C° 0 mm 1 mps 754 mmHg 75%
08:00 +24°C° 0 mm 1 mps 754 mmHg 72%
09:00 +25°C° 0 mm 1 mps 754 mmHg 68%
10:00 +25°C° 0 mm 1 mps 754 mmHg 65%
11:00 +27°C° 0 mm 2 mps 754 mmHg 60%
12:00 +28°C° 0 mm 2 mps 753 mmHg 54%
13:00 +30°C° 0 mm 3 mps 753 mmHg 49%
14:00 +29°C° 0 mm 4 mps 752 mmHg 54%
15:00 +28°C° 0 mm 5 mps 751 mmHg 58%
16:00 +27°C° 0 mm 6 mps 750 mmHg 62%
17:00 +25°C° 0 mm 5 mps 751 mmHg 69%
18:00 +23°C° 0 mm 5 mps 752 mmHg 77%
19:00 +22°C° 0 mm 5 mps 752 mmHg 84%
20:00 +21°C° 0 mm 4 mps 753 mmHg 86%
21:00 +21°C° 0 mm 3 mps 754 mmHg 89%
22:00 +20°C° 0 mm 2 mps 754 mmHg 91%
23:00 +21°C° 0 mm 1 mps 754 mmHg 90%

15 July, Wednesday

Time Temperature Precipitation Wind Pressure Humidity
00:00 +21°C° 0 mm 1 mps 754 mmHg 89%
01:00 +21°C° 0 mm 1 mps 755 mmHg 88%
02:00 +21°C° 0 mm 1 mps 754 mmHg 88%
03:00 +21°C° 0 mm 1 mps 754 mmHg 87%
04:00 +22°C° 0 mm 1 mps 753 mmHg 87%
05:00 +21°C° 0 mm 2 mps 754 mmHg 85%
06:00 +21°C° 0 mm 2 mps 754 mmHg 83%
07:00 +23°C° 0 mm 2 mps 755 mmHg 82%
08:00 +24°C° 0 mm 2 mps 755 mmHg 73%
09:00 +26°C° 0 mm 2 mps 755 mmHg 65%
10:00 +28°C° 0 mm 1 mps 755 mmHg 57%
11:00 +29°C° 0 mm 2 mps 755 mmHg 53%
12:00 +30°C° 0 mm 3 mps 754 mmHg 49%
13:00 +33°C° 0 mm 4 mps 753 mmHg 44%
14:00 +30°C° 0 mm 5 mps 752 mmHg 51%
15:00 +29°C° 0 mm 6 mps 752 mmHg 57%
16:00 +27°C° 0 mm 7 mps 751 mmHg 63%
17:00 +26°C° 0 mm 7 mps 752 mmHg 70%
18:00 +24°C° 0 mm 6 mps 753 mmHg 78%
19:00 +22°C° 0 mm 5 mps 753 mmHg 85%
20:00 +22°C° 0 mm 4 mps 754 mmHg 87%
21:00 +21°C° 0 mm 2 mps 755 mmHg 90%
22:00 +22°C° 0 mm 1 mps 756 mmHg 93%
23:00 +22°C° 0 mm 1 mps 756 mmHg 91%

16 July, Thursday

Time Temperature Precipitation Wind Pressure Humidity
00:00 +22°C° 0 mm 1 mps 756 mmHg 90%
01:00 +20°C° 0 mm 0 mps 756 mmHg 89%
02:00 +21°C° 0 mm 0 mps 756 mmHg 87%
03:00 +21°C° 0 mm 0 mps 756 mmHg 85%
04:00 +21°C° 0 mm 0 mps 756 mmHg 84%
05:00 +21°C° 0 mm 0 mps 756 mmHg 82%
06:00 +24°C° 0 mm 1 mps 757 mmHg 80%
07:00 +24°C° 0 mm 1 mps 757 mmHg 79%
08:00 +26°C° 0 mm 1 mps 757 mmHg 71%
09:00 +25°C° 0 mm 0 mps 757 mmHg 63%
10:00 +27°C° 0 mm 0 mps 757 mmHg 55%
11:00 +30°C° 0 mm 1 mps 756 mmHg 50%
12:00 +32°C° 0 mm 2 mps 756 mmHg 45%
13:00 +34°C° 0 mm 3 mps 755 mmHg 41%
14:00 +32°C° 0 mm 5 mps 754 mmHg 48%
15:00 +29°C° 0 mm 6 mps 754 mmHg 54%
16:00 +28°C° 0 mm 7 mps 753 mmHg 61%
17:00 +26°C° 0 mm 6 mps 753 mmHg 69%
18:00 +25°C° 0 mm 5 mps 754 mmHg 77%
19:00 +22°C° 0 mm 5 mps 754 mmHg 85%
20:00 +22°C° 0 mm 4 mps 755 mmHg 88%
21:00 +21°C° 0 mm 3 mps 756 mmHg 91%
22:00 +21°C° 0 mm 2 mps 756 mmHg 94%
23:00 +21°C° 0 mm 1 mps 757 mmHg 94%

17 July, Friday

Time Temperature Precipitation Wind Pressure Humidity
00:00 +21°C° 0 mm 1 mps 757 mmHg 95%
01:00 +21°C° 0 mm 1 mps 757 mmHg 95%
02:00 +20°C° 0 mm 2 mps 757 mmHg 94%
03:00 +20°C° 0 mm 2 mps 756 mmHg 93%
04:00 +21°C° 0 mm 2 mps 756 mmHg 92%
05:00 +21°C° 0 mm 3 mps 756 mmHg 90%
06:00 +21°C° 0 mm 3 mps 757 mmHg 88%
07:00 +21°C° 0 mm 3 mps 757 mmHg 86%
08:00 +24°C° 0 mm 2 mps 757 mmHg 77%
09:00 +26°C° 0 mm 2 mps 757 mmHg 68%
10:00 +28°C° 0 mm 1 mps 757 mmHg 58%
11:00 +30°C° 0 mm 2 mps 756 mmHg 51%
12:00 +31°C° 0 mm 3 mps 755 mmHg 43%
13:00 +34°C° 0 mm 4 mps 754 mmHg 36%
14:00 +33°C° 0 mm 5 mps 753 mmHg 42%
15:00 +30°C° 0 mm 5 mps 753 mmHg 49%
16:00 +29°C° 0 mm 6 mps 752 mmHg 56%
17:00 +27°C° 0 mm 6 mps 753 mmHg 65%
18:00 +24°C° 0 mm 6 mps 753 mmHg 75%
19:00 +22°C° 0 mm 6 mps 753 mmHg 84%
20:00 +22°C° 0 mm 5 mps 754 mmHg 88%
21:00 +21°C° 0 mm 4 mps 754 mmHg 91%
22:00 +20°C° 0 mm 3 mps 755 mmHg 94%
23:00 +20°C° 0 mm 3 mps 755 mmHg 94%
Show more